sat.trackr.live / text

‹ back to catalog

STARLINK-36566

NORAD 67551 · 2026-014V

PAYLOAD ACTIVE UNKNOWN

§ Identity

Operator
Country
US
Launch date
2026-01-22
Launch site
AFWTR
Launch vehicle
Mass (kg)
RCS (m²)

Purposes: comms

External: N2YO · Heavens-Above · Gunter

§ Orbital elements

Epoch: 2026-09-18T22:18:07.743456Z

Period
93.91 min
Inclination
97.2873°
Eccentricity
0.0002198
Mean motion
15.33459844 rev/d
Perigee alt
464.0 km
Apogee alt
467.0 km
Semi-major
6,843.6 km
B*
5.5033e-4
RAAN
147.2555°
Arg perigee
85.6242°
Mean anomaly
274.5252°
Rev number
3,838

§ Raw data

STARLINK-365661 67551U 26014V   26261.92925629  .00017743  00000+0  55033-3 0  99982 67551  97.2873 147.2555 0002198  85.6242 274.5252 15.33459844 38383

JSON: /api/v1/satellites/67551 · /tle

For live sub-satellite position, see the globe view (requires WebGL).

§ Visibility from observer

Set your observer location to see the next 7 days of passes ≥ 10°. The values pass through the URL so the page stays shareable.

No JS? Fill the form by hand. The geolocation button needs JavaScript.